Regional Weather Roundup
Issued by NWS

Home | Current Version | Previous Version | Text Only | Print | Product List | Glossary Off
Versions: 1 2 3 4 5 6 7 8 9 10 11 12 13 14 15 16 17 18 19 20 21 22 23 24 25 26 27 28 29 30 31 32 33 34 35 36 37 38 39 40 41 42 43 44 45 46 47 48 49 50

013
ASUS43 KIND 231059
RWRIN

WEATHER ROUNDUP FOR INDIANA
NATIONAL WEATHER SERVICE INDIANAPOLIS IN
600 AM EST THU FEB 23 2017

NOTE: "FAIR" INDICATES FEW OR NO CLOUDS BELOW 12,000 FEET WITH NO
SIGNIFICANT WEATHER AND/OR OBSTRUCTIONS TO VISIBILITY.

* - STATION DOES NOT REPORT WEATHER SUCH AS PRECIPITATION OR FOG.

+ - STATION NOT QUALITY CONTROLLED BY THE NATIONAL WEATHER SERVICE.
    USE DATA WITH CAUTION...ESPECIALLY DEWPOINT AND RELATIVE
    HUMIDITY OBSERVATIONS.

INZ001>003-010>013-019-020-231200-
NORTHWEST INDIANA

CITY           SKY/WX    TMP DP  RH WIND       PRES   REMARKS
GARY /AIRPORT/ CLEAR     46  45  93 W8        29.71R
KNOX *+        CLEAR     48  41  76 SW5       29.71R
LA PORTE +     FOG       44  44  99 SW3       29.71S VSB 1/4
MICHIGAN CITY+ CLEAR     52  46  82 CALM      29.71R
MONTICELLO +   CLEAR     50  49  95 SW5       29.72S
RENSSELAER +   PTCLDY    48  48 100 SW5       29.72S FOG

$$

LMZ046-743>745-231200-
SOUTHERN LAKE MICHIGAN

STATION/POSITION TIME  TEMP    WIND        PRES    WAVE
                       AIR SEA DIR/SP/G            HT
                 (UTC) (F)     (DEG/KT/KT) (MB)    (FT)
BURNS HARBOR     1040   47     240/  7/ 10 1006.4R
MICHIGAN CITY    1030   46     220/ 13/ 13   N/A

$$

INZ004-005-014>016-021>024-231200-
NORTH CENTRAL INDIANA

CITY           SKY/WX    TMP DP  RH WIND       PRES   REMARKS
GOSHEN         CLEAR     53  49  86 SW7       29.71R
SOUTH BEND     PTCLDY    47  47 100 SW5       29.71R FOG
WARSAW +       CLEAR     52  52 100 W8        29.71R

$$

INZ006>009-017-018-025>027-231200-
NORTHEAST INDIANA

CITY           SKY/WX    TMP DP  RH WIND       PRES   REMARKS
ANGOLA *+      PTCLDY    55  46  71 W10       29.69R
AUBURN +       CLEAR     54  50  87 SW3       29.71R
FORT WAYNE     PTCLDY    53  50  89 SW9       29.72R
KENDALLVILLE + PTCLDY    54  52  93 W10       29.71R

$$

INZ028-029-035-036-043>045-051>053-231200-
WEST CENTRAL INDIANA

CITY           SKY/WX    TMP DP  RH WIND       PRES   REMARKS
LAFAYETTE      CLEAR     51  51 100 W5        29.73S
TERRE HAUTE    PTCLDY    54  51  90 VRB5      29.76S

$$

INZ030>032-037>040-046>048-054>057-064-065-231200-
CENTRAL INDIANA

CITY           SKY/WX    TMP DP  RH WIND       PRES   REMARKS
CP ATTERBURY + MOCLDY    50  48  93 CALM      29.78S VSB 3/4
FRANKFORT +    PTCLDY    54  52  94 SW10      29.76R
GREENWOOD *+   CLOUDY    56  55  97 SW5       29.78R
INDIANAPOLIS   MOCLDY    55  53  93 SW8       29.76S
-EAGLE CREEK   PTCLDY    54  52  93 S6        29.75S
KOKOMO +       CLEAR     53  51  93 SW8       29.74R
MT COMFORT *+  MOCLDY    54  52  94 S7        29.77R
SHELBYVILLE    MOCLDY    56  52  86 S10       29.77R

$$

INZ033-034-041-042-049-050-058-059-231200-
EAST CENTRAL INDIANA

CITY           SKY/WX    TMP DP  RH WIND       PRES   REMARKS
MUNCIE         CLEAR     58  54  86 SW8       29.74S

$$

INZ060-061-067>069-081>083-085>088-231200-
SOUTHWEST INDIANA

CITY           SKY/WX    TMP DP  RH WIND       PRES   REMARKS
EVANSVILLE     MOCLDY    56  53  90 CALM      29.79S
HUNTINGBURG *+ MOCLDY    56  54  93 S6        29.80S

$$

INZ062-063-066-070>080-084-089>092-231200-
SOUTH CENTRAL AND SOUTHEAST INDIANA

CITY           SKY/WX    TMP DP  RH WIND       PRES   REMARKS
BLOOMINGTON    CLOUDY    59  53  80 SW8       29.77S
MADISON *+     CLOUDY    59  54  82 S6        29.83S
SEYMOUR +      CLOUDY    57  54  88 S6        29.79

$$





USA.gov is the U.S. government's official web portal to all federal, state and local government web resources and services.